Location: Aix-en-Ergny
(50.5839°N, 1.9996°E)
Time: 02:28:52
(UTC+00:00)

Cosmos 1707 - Pass Details

Date: 23 October 2019
Orbit: 515 x 532 km, 82.5° (Epoch: 14 November)

Event Time Altitude Azimuth Distance (km) Brightness Sun altitude
Exits shadow 04:33:48 41° 303° (WNW) 785 3.2 -18.6°
Drops below altitude 10° 04:37:10 10° 358° (N) 1,793 5.5 -18.1°
Sets 04:39:25 0° 5° (N) 2,686 6.5 -17.7°
